This is the latest recevied weather packets stored in our database for station/object N2OCK. If no packets are shown the sender has not sent any weather packets the latest 10 day(s).
| Time | Temp. | Humidity | Pressure | Rain* | Wind** | Luminosity | Snow |
|---|---|---|---|---|---|---|---|
| 1778015759 | 19.44° C | 65% | 1009.2 hPa | 0 mm | - | 291 W/m² | - |
| 1778015456 | 19.44° C | 65% | 1009.2 hPa | 0 mm | - | 307 W/m² | - |
| 1778015152 | 19.44° C | 65% | 1009.3 hPa | 0 mm | - | 296 W/m² | - |
| 1778014850 | 20° C | 65% | 1009.2 hPa | 0 mm | - | 276 W/m² | - |
| 1778014547 | 20° C | 64% | 1009 hPa | 0 mm | - | 316 W/m² | - |
| 1778014244 | 20° C | 65% | 1009.2 hPa | 0 mm | - | 361 W/m² | - |
| 1778013942 | 20° C | 65% | 1009.3 hPa | 0 mm | - | 383 W/m² | - |
| 1778013639 | 20° C | 65% | 1009.2 hPa | 0 mm | - | 372 W/m² | - |
| 1778013335 | 20° C | 65% | 1009.1 hPa | 0 mm | - | 354 W/m² | - |
| 1778013033 | 20° C | 64% | 1009.3 hPa | 0 mm | - | 408 W/m² | - |
| 1778012729 | 20° C | 65% | 1009.3 hPa | 0 mm | - | 439 W/m² | - |
| 1778012424 | 20° C | 64% | 1009.5 hPa | 0 mm | - | 421 W/m² | - |
| 1778012122 | 20.56° C | 64% | 1009.4 hPa | 0 mm | - | 462 W/m² | - |
| 1778011819 | 20.56° C | 65% | 1009.4 hPa | 0 mm | - | 470 W/m² | - |
| 1778011517 | 20.56° C | 64% | 1009.4 hPa | 0 mm | - | 485 W/m² | - |
| 1778011214 | 20° C | 64% | 1009.5 hPa | 0 mm | - | 498 W/m² | - |
| 1778010910 | 20.56° C | 64% | 1009.6 hPa | 0 mm | - | 507 W/m² | - |
| 1778010607 | 20.56° C | 64% | 1009.6 hPa | 0 mm | - | 510 W/m² | - |
| 1778010305 | 20.56° C | 63% | 1009.8 hPa | 0 mm | - | 528 W/m² | - |
| 1778010004 | 20.56° C | 64% | 1009.6 hPa | 0 mm | - | 540 W/m² | - |
| 1778009702 | 20.56° C | 63% | 1009.7 hPa | 0 mm | - | 535 W/m² | - |
| 1778009399 | 20.56° C | 63% | 1009.9 hPa | 0 mm | - | 520 W/m² | - |
| 1778009098 | 20.56° C | 63% | 1010.1 hPa | 0 mm | - | 562 W/m² | - |
| 1778008795 | 20.56° C | 63% | 1010.1 hPa | 0 mm | - | 582 W/m² | - |
| 1778008494 | 21.11° C | 62% | 1010.2 hPa | 0 mm | - | 595 W/m² | - |
* Rain latest hour (hover to see other rain measurements)
** Current wind speed in m/s (hover to see current wind gust speed)